Location: Unspecified
(0.0000°N, 0.0000°E)
Time: 21:39:20
(UTC+00:00)

GRAB 6 - Visible Passes

Search period start: 29 April 2025 00:00
Search period end: 09 May 2025 00:00
Orbit: 889 x 922 km, 70.1° (Epoch: 28 April)

Date Brightness Start Highest point End Pass type
(mag) Time Alt. Az. Time Alt. Az. Time Alt. Az.
29 Apr 9.3 19:48:59 10° WNW 19:52:46 17° WSW 19:56:34 10° SSW visible
30 Apr 9.8 05:15:05 10° SE 05:16:53 11° ESE 05:18:40 10° E visible
30 Apr 9.7 19:55:39 10° W 19:57:03 11° WSW 19:58:27 10° WSW visible
01 May 9.5 05:17:14 10° SSE 05:21:10 18° ESE 05:25:05 10° ENE visible
02 May 9.0 05:20:27 10° SSE 05:25:25 27° ESE 05:30:24 10° NE visible
02 May 7.3 18:14:20 10° NNW 18:20:16 69° WSW 18:26:09 10° S visible
03 May 8.3 05:24:07 10° S 05:29:41 41° ESE 05:35:17 10° NE visible
03 May 8.1 18:18:52 10° NW 18:24:31 45° WSW 18:30:09 10° S visible
04 May 7.5 05:28:02 10° S 05:33:56 61° ESE 05:39:52 10° NNE visible
04 May 8.8 18:23:39 10° NW 18:28:46 30° WSW 18:33:52 10° SSW visible
05 May 6.9 05:32:11 10° SSW 05:38:11 89° WNW 05:44:14 10° NNE visible
05 May 9.4 18:28:49 10° WNW 18:33:01 20° WSW 18:37:14 10° SSW visible
06 May 9.6 18:34:47 10° W 18:37:18 13° WSW 18:39:50 10° SW visible
07 May 9.4 03:57:59 10° SE 04:01:25 16° ESE 04:04:51 10° ENE visible
08 May 8.9 04:00:59 10° SSE 04:05:41 24° ESE 04:10:23 10° NE visible
